FW6239 Weather Reports


time (UTC)temp
C
wind
direction
speed
KPH
gust
KPH
rain 1hr
cm
rain 24hr
cm
rain mn
cm
humidity
%
barometer
mb
20260510143058 12 26 3.2 9.7 0.03 0.05 0.05 67 1022.9
20260510141545 12 74 1.6 4.8 0.05 0.05 0.05 72 1022.8
20260510140044 12 16 0.0 3.2 0.05 0.05 0.05 76 1022.7
20260510134548 12 17 3.2 8.0 0.05 0.05 0.05 73 1022.6
20260510133045 12 58 0.0 4.8 0.03 0.03 0.03 73 1022.3
20260510131542 12 360 4.8 14.5 0.00 0.00 0.00 67 1022.2
20260510130050 13 360 3.2 14.5 0.00 0.00 0.00 65 1021.9
20260510124549 13 360 6.4 16.1 0.00 0.00 0.00 62 1021.6
20260510123049 13 360 9.7 20.9 0.00 0.00 0.00 61 1020.6
20260510121542 13 360 12.9 25.7 0.00 0.00 0.00 62 1019.6
20260510120048 13 360 9.7 22.5 0.00 0.00 0.00 63 1018.9
20260510114550 14 360 14.5 24.1 0.00 0.00 0.00 63 1018.4
20260510113059 13 360 9.7 20.9 0.00 0.00 0.00 65 1017.8
20260510111553 14 360 11.3 22.5 0.00 0.00 0.00 67 1017.6
20260510110046 14 360 9.7 19.3 0.00 0.00 0.00 66 1017.6
20260510104556 14 360 11.3 19.3 0.00 0.00 0.00 66 1017.5
20260510103050 15 360 8.0 19.3 0.00 0.00 0.00 66 1017.3
20260510101543 15 360 6.4 24.1 0.00 0.00 0.00 67 1017.0
20260510100042 14 360 8.0 19.3 0.00 0.00 0.00 67 1016.7
20260510094550 14 29 6.4 22.5 0.00 0.00 0.00 69 1016.4
20260510093103 15 33 8.0 20.9 0.00 0.00 0.00 65 1016.1
20260510091547 15 20 8.0 17.7 0.00 0.00 0.00 64 1016.2
20260510090049 15 19 9.7 19.3 0.00 0.00 0.00 64 1016.0
20260510084552 16 64 8.0 19.3 0.00 0.00 0.00 63 1016.0
20260510083052 16 38 8.0 17.7 0.00 0.00 0.00 63 1016.1
20260510081619 16 26 4.8 16.1 0.00 0.00 0.00 64 1016.0
20260510080047 16 31 6.4 14.5 0.00 0.00 0.00 63 1015.8
20260510074556 17 26 4.8 9.7 0.00 0.00 0.00 62 1015.6
20260510073054 17 33 4.8 12.9 0.00 0.00 0.00 63 1015.5
20260510071542 17 79 4.8 12.9 0.00 0.00 0.00 62 1014.9
20260510070044 17 59 3.2 16.1 0.00 0.00 0.00 61 1014.9
20260510064554 17 88 6.4 17.7 0.00 0.00 0.00 61 1014.7
20260510063046 17 77 4.8 16.1 0.00 0.00 0.00 61 1014.6
20260510061549 17 90 8.0 16.1 0.00 0.00 0.00 62 1014.4
20260510060049 18 80 4.8 16.1 0.00 0.00 0.00 62 1014.0
20260510054544 18 78 4.8 11.3 0.00 0.00 0.00 61 1013.7
20260510053105 18 58 4.8 12.9 0.00 0.00 0.00 61 1013.8
20260510051550 18 65 6.4 12.9 0.00 0.00 0.00 59 1013.6
20260510050059 19 84 6.4 19.3 0.00 0.00 0.00 58 1013.4
20260510044601 19 53 6.4 14.5 0.00 0.00 0.00 57 1013.5
20260510043052 20 69 6.4 14.5 0.00 0.00 0.00 55 1013.3
20260510041545 20 69 3.2 11.3 0.00 0.00 0.00 53 1013.4
20260510040048 21 81 3.2 12.9 0.00 0.00 0.00 53 1013.3
20260510034546 21 38 3.2 8.0 0.00 0.00 0.00 50 1013.6
20260510033057 21 29 1.6 19.3 0.00 0.00 0.00 50 1013.1
20260510031548 22 40 6.4 20.9 0.00 0.00 0.00 49 1012.7
20260510030100 22 69 4.8 20.9 0.00 0.00 0.00 48 1012.7
20260510024546 22 119 0.0 8.0 0.00 0.00 0.00 44 1012.3
20260510023048 22 99 3.2 6.4 0.00 0.00 0.00 44 1012.2
20260510021548 23 209 1.6 6.4 0.00 0.00 0.00 41 1012.2
20260510020051 23 238 1.6 8.0 0.00 0.00 0.00 40 1012.3
20260510014553 23 277 1.6 4.8 0.00 0.00 0.00 40 1012.0
20260510013044 24 205 1.6 9.7 0.00 0.00 0.00 38 1011.5
20260510011548 25 207 4.8 12.9 0.00 0.00 0.00 36 1011.0
20260510010051 25 177 6.4 12.9 0.00 0.00 0.00 35 1009.9
20260510004548 25 187 4.8 9.7 0.00 0.00 0.00 33 1009.4
20260510003054 26 171 4.8 16.1 0.00 0.00 0.00 30 1008.8
20260510001544 27 193 8.0 16.1 0.00 0.00 0.00 30 1008.9
20260510000054 27 175 8.0 14.5 0.00 0.00 0.00 28 1008.8
20260509234556 28 190 9.7 17.7 0.00 0.00 0.00 28 1008.9
20260509233059 28 150 4.8 11.3 0.00 0.00 0.00 27 1008.9
20260509231553 28 186 9.7 16.1 0.00 0.00 0.00 25 1009.1
20260509230044 29 208 4.8 14.5 0.00 0.00 0.00 25 1009.1
20260509224548 29 239 6.4 12.9 0.00 0.00 0.00 26 1009.1
20260509223056 29 0 6.4 16.1 0.00 0.00 0.00 24 1008.9
20260509221548 30 204 9.7 16.1 0.00 0.00 0.00 25 1008.9
20260509220051 29 265 3.2 14.5 0.00 0.00 0.00 26 1008.9
20260509214550 28 108 1.6 9.7 0.00 0.00 0.00 26 1008.9
20260509213049 28 254 4.8 11.3 0.00 0.00 0.00 24 1009.1
20260509211546 29 259 4.8 14.5 0.00 0.00 0.00 25 1009.2
20260509210050 29 0 3.2 14.5 0.00 0.00 0.00 25 1009.3
20260509204549 29 280 1.6 17.7 0.00 0.00 0.00 24 1009.6
20260509203049 29 173 11.3 25.7 0.00 0.00 0.00 25 1009.8
20260509201600 28 207 8.0 20.9 0.00 0.00 0.00 25 1010.1
20260509200103 28 215 8.0 17.7 0.00 0.00 0.00 23 1010.2
20260509194549 29 186 11.3 16.1 0.00 0.00 0.00 28 1010.3
20260509193111 29 178 8.0 19.3 0.00 0.00 0.00 27 1010.3
20260509191550 28 336 1.6 17.7 0.00 0.00 0.00 26 1010.5
20260509190050 28 298 6.4 16.1 0.00 0.00 0.00 26 1010.7
20260509184600 28 252 11.3 19.3 0.00 0.00 0.00 26 1010.7
20260509183043 28 279 4.8 19.3 0.00 0.00 0.00 26 1011.0
20260509181552 28 360 3.2 16.1 0.00 0.00 0.00 31 1011.2
20260509180042 27 286 8.0 16.1 0.00 0.00 0.00 32 1011.4
20260509174552 27 316 6.4 19.3 0.00 0.00 0.00 31 1011.5
20260509173101 27 240 9.7 20.9 0.00 0.00 0.00 33 1011.9
20260509171555 26 288 8.0 19.3 0.00 0.00 0.00 37 1012.0
20260509170047 26 246 6.4 17.7 0.00 0.00 0.00 39 1012.0
20260509164543 25 240 6.4 16.1 0.00 0.00 0.00 38 1012.1
20260509163045 25 236 9.7 20.9 0.00 0.00 0.00 37 1012.1
20260509161550 25 246 9.7 19.3 0.00 0.00 0.00 36 1012.1
20260509160044 25 227 6.4 19.3 0.00 0.00 0.00 39 1011.9
20260509154546 24 230 12.9 24.1 0.00 0.00 0.00 37 1012.1
20260509153044 23 252 11.3 20.9 0.00 0.00 0.00 40 1012.1
20260509151549 23 251 6.4 14.5 0.00 0.00 0.00 47 1012.2
20260509144644 21 229 8.0 16.1 0.00 0.00 0.00 51 1012.1